Regional Weather Roundup
Issued by NWS Jackson, KY

Home | Current Version | Previous Version | Graphics & Text | Print | Product List | Glossary On
Versions: 1 2 3 4 5 6 7 8 9 10 11 12 13 14 15 16 17 18 19 20 21 22 23 24 25 26 27 28 29 30 31 32 33 34 35 36 37 38 39 40 41 42 43 44 45 46 47 48 49 50
000
ASUS43 KJKL 011405
RWRJKL

EAST KENTUCKY HOURLY WEATHER ROUNDUP
NATIONAL WEATHER SERVICE JACKSON KY
1000 AM EDT WED OCT 01 2014

NOTE: "FAIR" INDICATES FEW OR NO CLOUDS BELOW 12,000 FEET WITH
NO SIGNIFICANT WEATHER AND/OR OBSTRUCTIONS TO VISIBILITY.

* THESE REPORTS ARE NOT UNDER NWS QUALITY CONTROL AND MAY NOT
  REPORT WEATHER SUCH AS PRECIPITATION AND FOG.

KYZ079-080-083-085-087-088-110-112-115-119-120-011500
...EASTERN KENTUCKY...

CITY           SKY/WX    TMP DP  RH WIND       PRES   REMARKS
JACKSON        FOG       59  58  96 CALM      30.04R VSB 1/4
LONDON         SUNNY     62  57  83 CALM      30.03R
SOMERSET*      SUNNY     61  57  88 CALM      30.04R
MONTICELLO*    SUNNY     66  58  75 CALM      30.04R
WILLIAMSBURG*  SUNNY     59  59 100 CALM      30.04
MIDDLESBORO*   FOG       54  54 100 CALM      30.07R VSB 1
HARLAN APT*    CLOUDY    55  55 100 NE3       30.06S
BLACK MTN*       N/A     66  52  59 CALM        N/A
PIKEVILLE APT* FOG       57  57 100 CALM      30.04R VSB 0
BIG SANDY*     CLOUDY    60  60  99 CALM      30.04R FOG
MOREHEAD APT*  FOG       61  59  94 CALM      30.05R VSB 1
$$

KYZ035-036-041-042-044-050-067-078-099-011500
...CENTRAL KENTUCKY...

CITY           SKY/WX    TMP DP  RH WIND       PRES   REMARKS
MT STERLING*   FOG       59  59 100 CALM      30.05R VSB 1
FLEMING/MASON* FOG       55  55  99 CALM      30.05R VSB 1/4
DANVILLE*      FOG       57  57 100 SW3       30.03R VSB 1/2
RICHMOND*      CLOUDY    57  57 100 CALM      30.02R VSB<1/4
LEXINGTON      FOG       60  58  92 E5        30.03R VSB 1/2
FRANKFORT      PTSUNNY   57  53  86 E3        30.02R
$$

KYZ091>093-OHZ055-061-077-WVZ005-015-034-035-042-011500
...SOUTHERN OHIO/WEST VIRGINIA...

CITY           SKY/WX    TMP DP  RH WIND       PRES   REMARKS
COVINGTON      SUNNY     58  51  78 NE5       30.03R
COLUMBUS       CLOUDY    56  52  86 CALM      30.04R
DAYTON         CLOUDY    53  52  96 E3        30.06S FOG
WILMINGTON     FOG       51  50  96 NE5       30.05R VSB 1/4
HUNTINGTON     CLOUDY    61  57  87 CALM      30.03R
CHARLESTON     CLOUDY    62  58  86 CALM      30.03R FOG
PINEVILLE*     SUNNY     61  61 100 MISG      30.10S
BECKLEY        SUNNY     64  55  72 SW5       30.06R
BLUEFIELD      SUNNY     65  53  65 W7        30.09R
$$

VAZ002-007-008-TNZ017-027-036-066-071-011500
...SOUTHWEST VIRGINIA/EAST TENNESSEE...

CITY           SKY/WX    TMP DP  RH WIND       PRES   REMARKS
WISE*          SUNNY     68  54  60 SW5       30.09R
JONESVILLE*    SUNNY     59  55  88 CALM      30.08R
ABINGDON*      SUNNY     65  57  77 CALM      30.08R
BRISTOL        MOSUNNY   62  55  77 CALM      30.07R
KNOXVILLE      PTSUNNY   66  59  78 CALM      30.03R
OAK RIDGE      CLOUDY    59  58  96 CALM      30.06R FOG
CROSSVILLE     MOSUNNY   67  57  70 CALM      30.06R
NASHVILLE      PTSUNNY   68  57  68 CALM      30.00R
$$

...KEY TO REMARKS...
VSB - VISIBILITY IN MILES
WCI - WIND CHILL INDEX
HX  - HEAT INDEX

$$


USA.gov is the U.S. government's official web portal to all federal, state and local government web resources and services.